Home > Weather > Elverum > Past weeks

Flag for Norway Past Weather in Elverum, Norway — Yesterday and Last 2 Weeks

Now
45 °F

Cool.


Feels Like: 45 °F
Forecast: 55 / 67 °F
Wind: No wind

Location: Haugedalshogda

Current Time: Jul 27, 2016 at 3:50:47 AM

Latest Report: Jul 27, 2016 at 3:00 AM


Visibility: N/A

Pressure: 29.99 "Hg

Humidity: N/A

Dew Point: N/A

Location of ElverumLocation

Past Weather in Elverum — Graph

°F

Elverum Temperature Yesterday

Maximum temperature yesterday: 71 °F (at 2:00 PM)
Minimum temperature yesterday: 54 °F (at 11:00 PM)
Average temperature yesterday: 62 °F

High & Low Weather Summary for the Past Weeks

 TemperatureHumidityPressure
High80 °F (Jul 21, 3:00 PM)100% (Jul 12, 6:00 AM)30.16 "Hg (Jul 12, 6:00 AM)
Low42 °F (Jul 20, 5:00 AM)28% (Jul 15, 6:00 PM)29.44 "Hg (Jul 12, 2:00 AM)
Average62 °F67%29.93 "Hg
* Reported Jul 12 2:00 AM — Jul 27 2:00 AM, Elverum, Weather by CustomWeather, © 2016

Note: Actual official high and low records may vary slightly from our data, if they occured in-between our weather recording intervals... More about our weather records

Advertising

Elverum Weather History for the Previous 24 Hours

Scroll right to see more
 ConditionsComfort  
Time TempWeatherWind HumidityBarometerVisibility
2:00 AM
Wed, Jul 27
46 °FCool.1 mph99%29.98 "HgN/A
1:00 AM50 °FCool.1 mph97%29.96 "HgN/A
12:00 AM54 °FCool.1 mph94%29.95 "HgN/A
11:00 PM
Tue, Jul 26
54 °FCool.3 mph88%29.94 "HgN/A
10:00 PM58 °FCool.2 mph81%29.92 "HgN/A
9:00 PM58 °FCool.2 mph81%29.91 "HgN/A
8:00 PM61 °FCool.2 mph73%29.90 "HgN/A
7:00 PM63 °FMild.5 mph68%29.89 "HgN/A
6:00 PM61 °FCool.5 mph70%29.89 "HgN/A
5:00 PM63 °FMild.5 mph62%29.87 "HgN/A
4:00 PM64 °FMild.7 mph54%29.86 "HgN/A
3:00 PM71 °FMild.8 mph51%29.82 "HgN/A
2:00 PM71 °FMild.6 mph56%29.83 "HgN/A
1:00 PM70 °FMild.6 mph62%29.84 "HgN/A
12:00 PM68 °FMild.5 mph75%29.86 "HgN/A
11:00 AM63 °FMild.2 mph87%29.88 "HgN/A
10:00 AM63 °FMild.2 mph86%29.89 "HgN/A
9:00 AM61 °FCool.1 mph99%29.91 "HgN/A
8:00 AM60 °FCool.2 mph100%29.91 "HgN/A
7:00 AM60 °FCool.1 mph98%29.92 "HgN/A
6:00 AM61 °FCool.2 mph93%29.91 "HgN/A
5:00 AM60 °FCool.1 mph94%29.94 "HgN/A
4:00 AM60 °FCool.2 mph93%29.95 "HgN/A
3:00 AM59 °FCool.2 mph92%29.96 "HgN/A
Weather by CustomWeather, © 2016

See weather overviewHow to use our weather pages